| time (UTC) | temp F | wind direction | speed knots | gust knots | rain 1hr in | rain 24hr in | rain mn in | humidity % | barometer mb |
| 20260831011803 | 57 | 159 | 2.6 | 3.5 | 0.00 | 0.22 | 0.01 | 87 | 1002.1 |
| 20260831010903 | 57 | 170 | 3.5 | 5.2 | 0.00 | 0.22 | 0.01 | 87 | 1002.0 |
| 20260831010003 | 57 | 183 | 3.5 | 5.2 | 0.00 | 0.22 | 0.01 | 87 | 1002.0 |
| 20260831005403 | 57 | 187 | 3.5 | 5.2 | 0.00 | 0.22 | 0.01 | 87 | 1001.8 |
| 20260831004718 | 57 | 168 | 3.5 | 6.1 | 0.00 | 0.22 | 0.01 | 86 | 1002.0 |
| 20260831003603 | 57 | 142 | 2.6 | 4.3 | 0.00 | 0.22 | 0.01 | 86 | 1001.7 |
| 20260831002918 | 58 | 214 | 4.3 | 7.8 | 0.00 | 0.22 | 0.01 | 87 | 1001.7 |
| 20260831002017 | 57 | 220 | 3.5 | 7.8 | 0.00 | 0.22 | 0.01 | 87 | 1001.8 |
| 20260831001117 | 58 | 140 | 2.6 | 4.3 | 0.01 | 0.22 | 0.01 | 87 | 1001.5 |
| 20260831000003 | 58 | 153 | 3.5 | 6.1 | 0.01 | 0.22 | 0.01 | 86 | 1001.2 |
| 20260830235403 | 58 | 154 | 3.5 | 6.1 | 0.01 | 0.22 | 0.01 | 85 | 1001.2 |
| 20260830234503 | 58 | 156 | 1.7 | 3.5 | 0.01 | 0.22 | 0.01 | 84 | 1001.2 |
| 20260830233603 | 58 | 198 | 3.5 | 5.2 | 0.01 | 0.22 | 0.01 | 84 | 1001.0 |
| 20260830232703 | 58 | 215 | 4.3 | 7.0 | 0.01 | 0.22 | 0.01 | 85 | 1001.0 |
| 20260830231803 | 59 | 213 | 4.3 | 6.1 | 0.01 | 0.22 | 0.01 | 86 | 1001.1 |
| 20260830230903 | 59 | 202 | 3.5 | 4.3 | 0.00 | 0.21 | 0.00 | 88 | 1001.0 |
| 20260830230004 | 59 | 132 | 2.6 | 4.3 | 0.00 | 0.21 | 0.00 | 88 | 1001.2 |
| 20260830225403 | 59 | 55 | 1.7 | 3.5 | 0.00 | 0.21 | 0.21 | 87 | 1000.8 |
| 20260830224503 | 59 | 169 | 2.6 | 3.5 | 0.00 | 0.21 | 0.21 | 87 | 1000.9 |
| 20260830223818 | 60 | 206 | 3.5 | 8.7 | 0.00 | 0.21 | 0.21 | 88 | 1001.1 |
| 20260830222703 | 60 | 215 | 3.5 | 6.1 | 0.00 | 0.21 | 0.21 | 88 | 1000.9 |
| 20260830222017 | 60 | 265 | 4.3 | 7.0 | 0.00 | 0.21 | 0.21 | 89 | 1001.0 |
| 20260830220903 | 60 | 156 | 4.3 | 7.0 | 0.00 | 0.21 | 0.21 | 89 | 1000.5 |
| 20260830220003 | 60 | 220 | 3.5 | 7.0 | 0.00 | 0.21 | 0.21 | 89 | 1000.5 |
| 20260830215617 | 60 | 254 | 3.5 | 7.0 | 0.00 | 0.21 | 0.21 | 89 | 1000.4 |
| 20260830214503 | 61 | 183 | 5.2 | 7.0 | 0.00 | 0.21 | 0.21 | 89 | 1000.1 |
| 20260830213603 | 61 | 181 | 6.1 | 7.8 | 0.00 | 0.21 | 0.21 | 89 | 1000.2 |
| 20260830212703 | 61 | 199 | 5.2 | 8.7 | 0.00 | 0.21 | 0.21 | 89 | 1000.0 |
| 20260830211803 | 61 | 189 | 4.3 | 5.2 | 0.00 | 0.21 | 0.21 | 90 | 1000.1 |
| 20260830211118 | 61 | 194 | 5.2 | 7.0 | 0.00 | 0.21 | 0.21 | 89 | 1000.2 |
| 20260830210003 | 61 | 160 | 4.3 | 8.7 | 0.00 | 0.21 | 0.21 | 88 | 1000.3 |
| 20260830205403 | 61 | 195 | 5.2 | 9.6 | 0.00 | 0.21 | 0.21 | 88 | 1000.3 |
| 20260830204503 | 61 | 185 | 7.0 | 13.9 | 0.00 | 0.21 | 0.21 | 88 | 1000.5 |
| 20260830203603 | 61 | 196 | 7.0 | 13.9 | 0.00 | 0.21 | 0.21 | 88 | 1000.3 |
| 20260830202703 | 61 | 196 | 6.1 | 8.7 | 0.00 | 0.21 | 0.21 | 89 | 1000.7 |
| 20260830201803 | 61 | 198 | 6.1 | 9.6 | 0.00 | 0.21 | 0.21 | 90 | 1001.0 |
| 20260830200903 | 61 | 190 | 4.3 | 7.8 | 0.00 | 0.21 | 0.21 | 90 | 1000.6 |
| 20260830200003 | 61 | 207 | 5.2 | 7.0 | 0.11 | 0.21 | 0.21 | 91 | 1001.0 |
| 20260830195403 | 61 | 247 | 6.1 | 9.6 | 0.13 | 0.21 | 0.21 | 91 | 1001.0 |
| 20260830194717 | 61 | 197 | 5.2 | 7.0 | 0.13 | 0.21 | 0.21 | 92 | 1001.0 |
| 20260830193817 | 60 | 149 | 5.2 | 7.0 | 0.13 | 0.21 | 0.21 | 92 | 1000.9 |
| 20260830192703 | 60 | 169 | 4.3 | 7.0 | 0.13 | 0.21 | 0.21 | 90 | 1001.0 |
| 20260830191803 | 60 | 192 | 5.2 | 7.8 | 0.13 | 0.21 | 0.21 | 89 | 1000.9 |
| 20260830190903 | 61 | 246 | 3.5 | 7.0 | 0.13 | 0.21 | 0.21 | 87 | 1000.8 |
| 20260830190003 | 62 | 207 | 6.1 | 10.4 | 0.02 | 0.11 | 0.11 | 84 | 1000.9 |
| 20260830185403 | 62 | 168 | 7.0 | 10.4 | 0.00 | 0.08 | 0.08 | 82 | 1000.9 |
| 20260830184503 | 62 | 148 | 7.0 | 12.2 | 0.00 | 0.08 | 0.08 | 81 | 1001.0 |
| 20260830183603 | 62 | 154 | 7.8 | 12.2 | 0.00 | 0.08 | 0.08 | 80 | 1000.8 |
| 20260830182703 | 63 | 174 | 6.1 | 9.6 | 0.00 | 0.08 | 0.08 | 79 | 1001.1 |
| 20260830181803 | 63 | 166 | 7.0 | 9.6 | 0.00 | 0.08 | 0.08 | 77 | 1001.0 |
| 20260830180903 | 64 | 173 | 6.1 | 11.3 | 0.00 | 0.08 | 0.08 | 72 | 1001.1 |
| 20260830180003 | 64 | 227 | 6.1 | 7.8 | 0.00 | 0.08 | 0.08 | 73 | 1001.1 |
| 20260830175617 | 64 | 222 | 7.0 | 9.6 | 0.00 | 0.08 | 0.08 | 73 | 1001.2 |
| 20260830174503 | 63 | 189 | 6.1 | 8.7 | 0.00 | 0.08 | 0.08 | 82 | 1001.0 |
| 20260830173603 | 63 | 196 | 9.6 | 14.8 | 0.00 | 0.08 | 0.08 | 84 | 1000.9 |
| 20260830172703 | 64 | 222 | 11.3 | 14.8 | 0.00 | 0.08 | 0.08 | 80 | 1001.3 |
| 20260830171846 | 64 | 225 | 2.6 | 15.6 | 0.00 | 0.08 | 0.08 | 81 | 1001.0 |
| 20260830165403 | 64 | 194 | 8.7 | 13.9 | 0.00 | 0.08 | 0.08 | 81 | 1001.5 |
| 20260830164503 | 64 | 179 | 9.6 | 13.9 | 0.00 | 0.08 | 0.08 | 80 | 1001.5 |
| 20260830163603 | 65 | 180 | 12.2 | 16.5 | 0.00 | 0.08 | 0.08 | 80 | 1001.6 |
| 20260830162703 | 65 | 200 | 11.3 | 17.4 | 0.00 | 0.08 | 0.08 | 78 | 1001.5 |
| 20260830162018 | 65 | 201 | 10.4 | 14.8 | 0.00 | 0.08 | 0.08 | 79 | 1002.0 |
| 20260830160903 | 65 | 210 | 9.6 | 14.8 | 0.00 | 0.08 | 0.08 | 80 | 1002.0 |
| 20260830160217 | 65 | 199 | 9.6 | 14.8 | 0.00 | 0.08 | 0.08 | 80 | 1001.6 |
| 20260830155403 | 65 | 195 | 8.7 | 13.0 | 0.00 | 0.08 | 0.08 | 81 | 1001.9 |
| 20260830154503 | 65 | 201 | 9.6 | 16.5 | 0.00 | 0.08 | 0.08 | 79 | 1001.9 |
| 20260830153603 | 65 | 187 | 10.4 | 13.9 | 0.00 | 0.08 | 0.08 | 78 | 1002.0 |
| 20260830152703 | 65 | 188 | 10.4 | 13.9 | 0.00 | 0.08 | 0.08 | 78 | 1002.1 |
| 20260830151803 | 65 | 180 | 9.6 | 14.8 | 0.00 | 0.08 | 0.08 | 79 | 1002.0 |
| 20260830150903 | 65 | 217 | 7.8 | 10.4 | 0.00 | 0.08 | 0.08 | 80 | 1002.2 |
| 20260830150003 | 65 | 207 | 8.7 | 13.9 | 0.00 | 0.08 | 0.08 | 80 | 1002.7 |
| 20260830145403 | 65 | 204 | 7.0 | 10.4 | 0.00 | 0.08 | 0.08 | 80 | 1002.7 |
| 20260830144718 | 65 | 189 | 7.8 | 11.3 | 0.01 | 0.08 | 0.08 | 78 | 1002.7 |
| 20260830143603 | 66 | 186 | 9.6 | 13.9 | 0.01 | 0.08 | 0.08 | 76 | 1002.7 |
| 20260830142703 | 66 | 177 | 10.4 | 15.6 | 0.01 | 0.08 | 0.08 | 75 | 1003.0 |
| 20260830142017 | 66 | 170 | 11.3 | 15.6 | 0.01 | 0.08 | 0.08 | 75 | 1003.1 |
| 20260830141117 | 67 | 225 | 7.8 | 14.8 | 0.01 | 0.08 | 0.08 | 74 | 1003.2 |
| 20260830140003 | 67 | 185 | 11.3 | 17.4 | 0.01 | 0.08 | 0.08 | 72 | 1003.4 |
| 20260830135618 | 67 | 184 | 11.3 | 14.8 | 0.01 | 0.08 | 0.08 | 72 | 1003.3 |
| 20260830134503 | 67 | 181 | 10.4 | 14.8 | 0.00 | 0.07 | 0.07 | 72 | 1003.5 |
| 20260830133603 | 67 | 161 | 11.3 | 18.2 | 0.00 | 0.07 | 0.07 | 72 | 1003.6 |
| 20260830132703 | 68 | 169 | 10.4 | 16.5 | 0.00 | 0.07 | 0.07 | 71 | 1003.7 |
| 20260830131803 | 69 | 178 | 8.7 | 10.4 | 0.00 | 0.07 | 0.07 | 71 | 1003.6 |
| 20260830130903 | 67 | 171 | 9.6 | 15.6 | 0.00 | 0.07 | 0.07 | 73 | 1003.4 |
| 20260830130218 | 67 | 212 | 11.3 | 15.6 | 0.00 | 0.07 | 0.07 | 73 | 1003.4 |
| 20260830125403 | 66 | 178 | 9.6 | 14.8 | 0.00 | 0.07 | 0.07 | 74 | 1003.5 |
| 20260830124503 | 66 | 192 | 10.4 | 15.6 | 0.00 | 0.07 | 0.07 | 74 | 1003.7 |
| 20260830123603 | 67 | 176 | 12.2 | 14.8 | 0.00 | 0.07 | 0.07 | 72 | 1004.0 |
| 20260830122703 | 69 | 229 | 11.3 | 14.8 | 0.00 | 0.07 | 0.07 | 71 | 1003.8 |
| 20260830122017 | 68 | 190 | 10.4 | 14.8 | 0.00 | 0.07 | 0.07 | 72 | 1003.6 |
| 20260830120903 | 67 | 174 | 10.4 | 13.0 | 0.01 | 0.07 | 0.07 | 75 | 1003.7 |
| 20260830120003 | 67 | 174 | 7.8 | 12.2 | 0.07 | 0.07 | 0.07 | 76 | 1003.9 |
| 20260830115403 | 67 | 195 | 8.7 | 12.2 | 0.07 | 0.07 | 0.07 | 76 | 1003.7 |
| 20260830114503 | 67 | 184 | 6.1 | 10.4 | 0.07 | 0.07 | 0.07 | 81 | 1003.7 |
| 20260830113603 | 65 | 182 | 6.1 | 9.6 | 0.07 | 0.07 | 0.07 | 81 | 1003.9 |
| 20260830112703 | 64 | 182 | 7.0 | 9.6 | 0.07 | 0.07 | 0.07 | 80 | 1004.1 |
| 20260830112016 | 65 | 253 | 7.8 | 11.3 | 0.07 | 0.07 | 0.07 | 77 | 1004.0 |
| 20260830110903 | 66 | 208 | 8.7 | 11.3 | 0.06 | 0.06 | 0.06 | 73 | 1004.1 |
| 20260830110004 | 67 | 165 | 9.6 | 15.6 | 0.00 | 0.00 | 0.00 | 73 | 1004.2 |
| 20260830105403 | 67 | 157 | 9.6 | 13.0 | 0.00 | 0.00 | 0.00 | 72 | 1004.2 |
| 20260830104503 | 68 | 164 | 7.8 | 10.4 | 0.00 | 0.00 | 0.00 | 73 | 1004.1 |
| 20260830103817 | 67 | 163 | 7.0 | 10.4 | 0.00 | 0.00 | 0.00 | 77 | 1004.2 |
| 20260830102703 | 65 | 164 | 7.0 | 13.0 | 0.00 | 0.00 | 0.00 | 81 | 1004.5 |
| 20260830101803 | 65 | 203 | 7.0 | 11.3 | 0.00 | 0.00 | 0.00 | 80 | 1004.5 |
| 20260830100903 | 65 | 189 | 6.1 | 8.7 | 0.00 | 0.00 | 0.00 | 80 | 1004.3 |
| 20260830100003 | 65 | 169 | 7.0 | 13.0 | 0.00 | 0.00 | 0.00 | 81 | 1004.5 |
| 20260830094503 | 65 | 176 | 7.0 | 13.0 | 0.00 | 0.00 | 0.00 | 78 | 1004.7 |
| 20260830093603 | 65 | 211 | 6.1 | 8.7 | 0.00 | 0.00 | 0.00 | 79 | 1004.9 |
| 20260830092703 | 65 | 105 | 5.2 | 9.6 | 0.00 | 0.00 | 0.00 | 81 | 1004.7 |
| 20260830092016 | 65 | 197 | 4.3 | 8.7 | 0.00 | 0.00 | 0.00 | 86 | 1004.7 |
| 20260830090903 | 63 | 170 | 4.3 | 7.0 | 0.00 | 0.00 | 0.00 | 91 | 1004.7 |
| 20260830090004 | 62 | 164 | 4.3 | 6.1 | 0.00 | 0.00 | 0.00 | 91 | 1004.8 |
| 20260830085616 | 62 | 153 | 4.3 | 6.1 | 0.00 | 0.00 | 0.00 | 91 | 1005.1 |
| 20260830084718 | 62 | 183 | 6.1 | 52.1 | 0.00 | 0.00 | 0.00 | 90 | 1005.0 |
| 20260830083603 | 62 | 217 | 7.8 | 9.6 | 0.00 | 0.00 | 0.00 | 86 | 1004.7 |
| 20260830082703 | 64 | 180 | 4.3 | 7.8 | 0.00 | 0.00 | 0.00 | 82 | 1004.9 |
| 20260830081803 | 64 | 211 | 3.5 | 4.3 | 0.00 | 0.00 | 0.00 | 84 | 1005.0 |
| 20260830080903 | 64 | 165 | 2.6 | 3.5 | 0.00 | 0.00 | 0.00 | 85 | 1004.7 |
| 20260830080003 | 63 | 157 | 2.6 | 2.6 | 0.00 | 0.00 | 0.00 | 88 | 1005.0 |
| 20260830075403 | 63 | 205 | 1.7 | 2.6 | 0.00 | 0.00 | 0.00 | 89 | 1004.6 |
| 20260830074503 | 63 | 212 | 2.6 | 3.5 | 0.00 | 0.00 | 0.00 | 93 | 1005.0 |
| 20260830073603 | 63 | 179 | 1.7 | 3.5 | 0.00 | 0.00 | 0.00 | 93 | 1005.0 |
| 20260830072918 | 61 | 156 | 1.7 | 2.6 | 0.00 | 0.00 | 0.00 | 93 | 1004.6 |
| 20260830071803 | 61 | 149 | 1.7 | 3.5 | 0.00 | 0.00 | 0.00 | 93 | 1004.8 |
| 20260830070903 | 60 | 183 | 1.7 | 2.6 | 0.00 | 0.00 | 0.00 | 93 | 1004.9 |
| 20260830070003 | 60 | 172 | 1.7 | 2.6 | 0.00 | 0.00 | 0.00 | 93 | 1004.7 |
| 20260830065403 | 60 | 144 | 1.7 | 1.7 | 0.00 | 0.00 | 0.00 | 93 | 1004.7 |
| 20260830064503 | 60 | 134 | 0.9 | 1.7 | 0.00 | 0.00 | 0.00 | 94 | 1004.6 |
| 20260830063603 | 59 | 174 | 1.7 | 2.6 | 0.00 | 0.00 | 0.00 | 94 | 1004.8 |
| 20260830062703 | 59 | 149 | 0.9 | 1.7 | 0.00 | 0.00 | 0.00 | 95 | 1005.0 |
| 20260830061803 | 59 | 166 | 0.9 | 2.6 | 0.00 | 0.00 | 0.00 | 95 | 1004.7 |
| 20260830060903 | 59 | 175 | 1.7 | 2.6 | 0.00 | 0.00 | 0.00 | 95 | 1004.8 |
| 20260830060003 | 58 | 181 | 2.6 | 3.5 | 0.00 | 0.00 | 0.00 | 95 | 1004.6 |
| 20260830055618 | 58 | 183 | 2.6 | 3.5 | 0.00 | 0.00 | 0.00 | 95 | 1004.6 |
| 20260830054503 | 58 | 152 | 1.7 | 2.6 | 0.00 | 0.00 | 0.00 | 95 | 1004.7 |
| 20260830053818 | 57 | 174 | 1.7 | 2.6 | 0.00 | 0.00 | 0.00 | 94 | 1004.5 |
| 20260830052917 | 57 | 177 | 2.6 | 2.6 | 0.00 | 0.00 | 0.00 | 94 | 1004.8 |
| 20260830051803 | 57 | 179 | 1.7 | 2.6 | 0.00 | 0.00 | 0.00 | 93 | 1004.7 |
| 20260830050903 | 56 | 174 | 1.7 | 2.6 | 0.00 | 0.00 | 0.00 | 92 | 1004.8 |
| 20260830050003 | 56 | 108 | 0.0 | 1.7 | 0.00 | 0.00 | 0.00 | 91 | 1004.5 |
| 20260830045403 | 57 | 122 | 0.9 | 1.7 | 0.00 | 0.00 | 0.00 | 91 | 1004.7 |
| 20260830044503 | 57 | 157 | 0.9 | 1.7 | 0.00 | 0.00 | 0.00 | 91 | 1004.8 |
| 20260830043603 | 57 | 157 | 0.9 | 1.7 | 0.00 | 0.00 | 0.00 | 91 | 1004.9 |
| 20260830042703 | 57 | 156 | 1.7 | 3.5 | 0.00 | 0.00 | 0.00 | 90 | 1004.6 |
| 20260830041803 | 58 | 185 | 3.5 | 4.3 | 0.00 | 0.00 | 0.00 | 90 | 1004.9 |
| 20260830040903 | 58 | 194 | 3.5 | 4.3 | 0.00 | 0.00 | 0.00 | 90 | 1004.7 |
| 20260830040003 | 58 | 175 | 3.5 | 5.2 | 0.00 | 0.00 | 0.00 | 89 | 1004.5 |
| 20260830035403 | 58 | 181 | 2.6 | 3.5 | 0.00 | 0.00 | 0.00 | 88 | 1004.8 |
| 20260830034503 | 58 | 177 | 2.6 | 3.5 | 0.00 | 0.00 | 0.00 | 88 | 1004.6 |
| 20260830033817 | 59 | 176 | 1.7 | 3.5 | 0.00 | 0.00 | 0.00 | 88 | 1004.8 |
| 20260830032703 | 59 | 188 | 2.6 | 3.5 | 0.00 | 0.00 | 0.00 | 89 | 1004.8 |
| 20260830031803 | 59 | 157 | 2.6 | 3.5 | 0.00 | 0.00 | 0.00 | 89 | 1004.9 |
| 20260830030903 | 59 | 164 | 1.7 | 3.5 | 0.00 | 0.00 | 0.00 | 88 | 1004.9 |
| 20260830030003 | 58 | 181 | 1.7 | 3.5 | 0.00 | 0.00 | 0.00 | 88 | 1005.0 |
| 20260830025403 | 59 | 256 | 1.7 | 3.5 | 0.00 | 0.00 | 0.00 | 88 | 1005.0 |
| 20260830024503 | 59 | 173 | 1.7 | 3.5 | 0.00 | 0.00 | 0.00 | 88 | 1004.8 |
| 20260830023603 | 59 | 160 | 1.7 | 2.6 | 0.00 | 0.00 | 0.00 | 88 | 1004.7 |
| 20260830022703 | 59 | 207 | 2.6 | 3.5 | 0.00 | 0.00 | 0.00 | 89 | 1004.7 |
| 20260830021803 | 59 | 238 | 2.6 | 3.5 | 0.00 | 0.00 | 0.00 | 89 | 1004.6 |
| 20260830021117 | 59 | 200 | 2.6 | 3.5 | 0.00 | 0.00 | 0.00 | 89 | 1004.6 |
| 20260830020003 | 59 | 201 | 3.5 | 3.5 | 0.00 | 0.00 | 0.00 | 89 | 1004.9 |
| 20260830015403 | 59 | 172 | 2.6 | 3.5 | 0.00 | 0.00 | 0.00 | 90 | 1004.9 |
| 20260830014503 | 60 | 184 | 3.5 | 4.3 | 0.00 | 0.00 | 0.00 | 90 | 1004.4 |
| 20260830013603 | 60 | 189 | 1.7 | 3.5 | 0.00 | 0.00 | 0.00 | 89 | 1004.6 |
| 20260830012703 | 60 | 158 | 2.6 | 5.2 | 0.00 | 0.00 | 0.00 | 89 | 1004.6 |